Flag for United Kingdom Weather past 2 weeks in Birmingham, England, United Kingdom

Now
57 °F

Passing clouds.


Feels Like: 56 °F
Forecast: 45 / 54 °F
Wind: 7 mph from Southwest

Location: Birmingham / Airport

Current Time: May 30, 2015 at 2:04:57 PM

Latest Report: May 30, 2015 at 1:20 PM


Visibility: N/A

Pressure: 29.95 "Hg

Humidity: 41%

Dew point: 34 °F

Location of BirminghamLocation

Historic Weather in Birmingham — Graph

°F

Birmingham temperature yesterday

Maximum temperature yesterday: 55 °F (at 3:20 PM)
Minimum temperature yesterday: 48 °F (at 2:50 AM)
Average temperature yesterday: 51 °F

Past Weeks' High & Low Weather Summary

 TemperatureHumidityPressure
High66 °F (May 21, 4:50 PM)100% (May 18, 8:20 AM)30.33 "Hg (May 18, 8:20 AM)
Low43 °F (May 19, 3:50 AM)34% (May 28, 2:20 PM)29.50 "Hg (May 19, 2:50 AM)
Average53 °F67%30.05 "Hg
* Reported May 15 12:20 PM — May 30 12:50 PM, Birmingham, Weather by CustomWeather, © 2015

Note: Actual official high and low records may vary slightly from our data, if they occured in-between our weather recording intervals... More about our weather records

Advertising

Birmingham weather history for previous 24 hours

 ConditionsComfort  
Time TempWeatherWind HumidityBarometerVisibility
12:50 PM
Sat, May 30
55 °FPassing clouds.9 mph44%29.95 "HgN/A
12:20 PM55 °FPartly sunny.10 mph41%29.95 "HgN/A
11:50 AM55 °FPartly sunny.7 mph44%29.95 "HgN/A
11:20 AM54 °FScattered clouds.8 mph51%29.95 "HgN/A
10:50 AM54 °FScattered clouds.6 mph51%29.92 "HgN/A
10:20 AM54 °FScattered clouds.8 mph54%29.92 "HgN/A
9:50 AM50 °FBroken clouds.6 mph62%29.92 "HgN/A
9:20 AM50 °FBroken clouds.8 mph58%29.92 "HgN/A
8:50 AM50 °FBroken clouds.8 mph62%29.92 "HgN/A
8:20 AM50 °FScattered clouds.9 mph62%29.92 "HgN/A
7:50 AM50 °FPassing clouds.9 mph62%29.89 "HgN/A
7:20 AM48 °FPassing clouds.10 mph66%29.89 "HgN/A
6:50 AM48 °FPassing clouds.8 mph71%29.89 "HgN/A
6:20 AM46 °FSunny.6 mph76%29.86 "Hg10 mi
5:50 AM45 °FPassing clouds.5 mph81%29.86 "HgN/A
5:20 AM45 °FPassing clouds.5 mph81%29.86 "HgN/A
4:50 AM45 °FClear.6 mph81%29.86 "Hg10 mi
4:20 AM46 °FPassing clouds.6 mph76%29.86 "HgN/A
3:50 AM46 °FPartly cloudy.6 mph76%29.86 "HgN/A
3:20 AM46 °FClear.7 mph76%29.83 "Hg10 mi
2:50 AM46 °FPassing clouds.7 mph76%29.83 "HgN/A
2:20 AM46 °FPartly cloudy.6 mph76%29.83 "HgN/A
1:50 AM46 °FCool.7 mph76%29.83 "HgN/A
1:20 AM46 °FPassing clouds.6 mph71%29.83 "HgN/A
12:50 AM48 °FPassing clouds.7 mph66%29.83 "HgN/A
12:20 AM48 °FClear.8 mph66%29.83 "Hg10 mi
11:50 PM
Fri, May 29
48 °FClear.8 mph66%29.83 "Hg10 mi
11:20 PM48 °FClear.7 mph66%29.83 "Hg10 mi
10:50 PM48 °FClear.8 mph66%29.83 "Hg10 mi
10:20 PM48 °FClear.8 mph66%29.80 "Hg10 mi
9:50 PM50 °FSunny.9 mph62%29.80 "Hg10 mi
9:20 PM50 °FPassing clouds.10 mph62%29.80 "HgN/A
8:50 PM52 °FScattered showers. Passing clouds.12 mph54%29.77 "HgN/A
8:20 PM54 °FScattered clouds.12 mph51%29.77 "HgN/A
7:50 PM54 °FScattered showers. Scattered clouds.12 mph51%29.77 "HgN/A
7:20 PM54 °FScattered showers. Scattered clouds.13 mph47%29.74 "HgN/A
6:50 PM55 °FPassing clouds.14 mph44%29.74 "HgN/A
6:20 PM55 °FScattered showers. Passing clouds.14 mph44%29.74 "HgN/A
5:50 PM55 °FScattered showers. Scattered clouds.17 mph44%29.71 "HgN/A
5:20 PM55 °FScattered showers. Scattered clouds.20 mph47%29.71 "HgN/A
4:50 PM55 °FScattered clouds.18 mph47%29.71 "HgN/A
4:20 PM55 °FScattered showers. Scattered clouds.21 mph44%29.71 "HgN/A
3:50 PM55 °FScattered showers. Scattered clouds.16 mph51%29.68 "HgN/A
3:20 PM55 °FScattered showers. Scattered clouds.16 mph55%29.68 "HgN/A
2:50 PM54 °FScattered showers. Scattered clouds.17 mph63%29.68 "HgN/A
2:20 PM52 °FLight rain. Broken clouds.17 mph72%29.68 "Hg5 mi
Weather by CustomWeather, © 2015

See weather overviewHow to use our weather pages